CAPE
4 3 4 1 2 0 0 1 0 0 0 0 3 0 0 0 0 0 0 0 0 0 0 0 0 0 0 0 0 0 0 0 0 0 0 0 0 0 0 0 0 0 0 0
3 5 4 5 9 5 8 2 0 0 6 0 0 0 0 0 0 0 0 0 0 0 0 0 0 0 0 0 0 0 0 0 0 0 0 0 0 0 0 0 0 0 0 0
0 0 0 2 8 17 19 7 13 1 0 0 0 0 0 0 0 0 0 0 0 0 0 0 0 0 0 0 0 0 0 0 0 0 0 0 0 0 0 0 0 0 0 0
4 0 1 0 0 2 3 0 2 1 6 0 0 0 0 0 0 0 0 0 0 0 0 0 0 0 0 0 0 0 0 0 0 0 0 0 0 0 0 0 0 0 0 0
0 0 3 0 0 0 0 1 15 28 4 1 0 0 0 0 0 0 0 0 0 0 0 0 0 0 0 0 0 0 0 0 0 0 0 0 0 0 0 0 0 0 0 0
0 21 2 0 1 3 14 26 24 27 23 0 0 0 0 0 0 0 0 0 0 0 0 0 0 0 0 0 0 0 0 0 0 0 0 0 0 0 0 0 0 0 0 0
10 3 12 14 18 39 57 19 0 6 6 0 0 0 0 0 0 0 0 0 0 0 0 0 0 0 0 0 0 0 0 0 0 0 0 0 0 0 0 0 0 0 0 0
4 0 5 2 15 7 24 7 0 0 0 0 0 0 0 0 0 0 0 0 0 0 0 0 0 0 0 0 0 0 0 0 0 0 0 0 0 0 0 0 0 0 0 0
0 0 0 0 0 17 18 14 0 8 3 0 0 0 0 0 0 0 0 0 0 0 0 0 0 0 0 0 0 0 0 0 0 0 0 0 0 0 0 0 0 0 0 0
2 0 0 0 13 1 0 8 6 12 2 0 0 0 0 0 0 0 0 0 0 0 0 0 0 0 0 0 0 0 0 0 0 0 0 0 0 2 0 0 0 0 0 0
1 6 0 0 0 0 4 32 9 11 0 0 0 0 0 0 0 0 0 0 0 0 0 0 0 0 0 0 0 0 0 0 0 0 0 0 0 9 16 0 0 0 0 0
2 16 32 0 0 0 0 0 10 0 0 0 0 0 0 0 0 0 0 0 0 0 0 0 0 0 0 0 0 0 0 0 0 0 0 0 0 0 0 8 0 1 4 0
1 8 6 8 1 15 7 12 10 2 34 5 0 0 0 0 0 0 0 0 0 0 0 0 0 0 0 0 0 0 0 0 0 0 0 0 0 0 0 0 0 0 0 0
60 1 0 0 0 0 2 0 22 17 12 0 1 0 0 0 0 0 0 0 0 0 0 0 0 0 0 0 0 0 0 0 0 0 0 0 0 0 0 0 0 0 11 19
21 0 0 0 0 5 0 0 1 4 0 8 0 0 0 0 0 0 2 0 0 0 0 0 0 0 0 0 0 0 0 0 0 0 0 0 0 0 0 0 0 1 44 30
13 2 0 0 0 0 2 1 0 0 0 4 0 0 0 0 0 1 9 0 0 0 0 0 0 0 0 0 0 0 0 0 0 0 0 0 0 0 0 0 0 0 1 33
39 0 0 0 0 2 0 0 0 0 0 0 0 0 0 0 1 28 0 0 0 0 0 0 0 0 0 0 0 0 0 0 0 0 0 0 0 0 0 0 0 0 0 0
45 32 6 3 8 2 0 0 0 0 0 0 0 0 0 10 5 0 0 0 0 0 0 0 0 0 0 0 0 0 0 0 0 0 0 0 0 0 0 0 0 0 0 0
25 19 1 1 1 0 0 0 0 0 0 0 0 0 6 0 0 0 0 0 0 0 0 0 0 0 0 0 0 0 0 0 0 0 0 0 0 0 0 0 0 0 0 0
1 13 4 1 1 0 0 0 0 0 0 0 0 0 0 0 0 0 0 0 0 0 0 0 0 0 0 0 0 0 0 0 0 0 0 0 0 0 0 0 0 0 0 0
7 27 0 3 2 0 0 0 0 0 0 0 0 0 0 0 0 0 0 0 0 0 0 0 0 0 0 0 0 0 0 0 1 0 0 0 0 0 0 0 0 0 0 0
0 1 0 6 2 0 0 0 0 0 0 0 0 0 0 0 0 0 0 0 0 0 0 0 0 0 0 0 0 0 0 2 2 3 0 0 0 0 0 0 0 0 0 0
0 0 0 0 0 0 0 0 0 0 0 0 0 0 0 0 0 0 0 0 0 0 0 0 0 0 0 0 3 0 1 2 0 0 1 0 0 0 0 0 0 0 1 0
0 0 0 0 0 0 0 0 0 0 0 0 0 0 0 0 0 0 0 0 0 0 0 0 0 0 0 0 0 0 2 1 0 0 0 1 1 1 1 0 0 0 1 1
0 0 0 0 0 0 0 0 0 0 0 0 0 0 0 0 0 0 0 0 0 0 0 0 0 0 0 0 0 0 3 1 3 1 0 1 1 2 1 0 0 0 0 0
0 0 0 0 0 0 0 0 0 0 0 0 0 0 0 0 0 0 0 0 0 0 0 0 0 0 0 0 0 0 0 0 1 3 1 1 2 0 0 0 0 1 2 2
CIN
-2 0 0 -3 -1 -1 0 -2 -1 0 0 -1 -5 0 0 0 0 0 0 0 0 0 0 0 0 0 0 0 0 0 0 0 0 0 0 0 0 0 0 0 0 0 0 0
0 0 -1 -1 -2 -1 -1 -2 -4 -3 -4 0 0 0 0 0 0 0 0 0 0 0 0 0 0 0 0 0 0 0 0 0 0 0 0 0 0 0 0 0 0 0 0 0
0 0 0 -1 -1 0 -1 -3 -5 -4 0 0 0 0 0 0 0 0 0 0 0 0 0 0 0 0 0 0 0 0 0 0 0 0 0 0 0 0 0 0 0 0 0 0
-2 0 0 0 0 -2 -1 -2 -2 -3 -4 0 0 0 0 0 0 0 0 0 0 0 0 0 0 0 0 0 0 0 0 0 0 0 0 0 0 0 0 0 0 0 0 0
0 -1 -1 0 0 0 0 -2 -2 -2 -2 -1 0 0 0 0 0 0 0 0 0 0 0 0 0 0 0 0 0 0 0 0 0 0 0 0 0 0 0 0 0 0 0 0
-1 -1 -1 0 -3 -2 -1 -3 -5 -3 -1 0 0 0 0 0 0 0 0 0 0 0 0 0 0 0 0 0 0 0 0 0 0 0 0 0 0 0 0 0 0 0 0 0
0 -3 -5 -6 -1 -4 -1 -3 -12 -1 -1 0 0 0 0 0 0 0 0 0 0 0 0 0 0 0 0 0 0 0 0 0 0 0 0 0 0 0 0 0 0 0 0 0
-3 0 -1 -6 -6 -4 -5 -5 0 0 0 0 0 0 0 0 0 0 0 0 0 0 0 0 0 0 0 0 0 0 0 0 0 0 0 0 0 0 0 0 0 0 0 0
0 0 0 0 0 -4 -2 -1 0 -12 -13 -1 0 0 0 0 0 0 0 0 0 0 0 0 0 0 0 0 0 0 0 0 0 0 0 0 0 0 0 0 0 0 0 0
-4 0 0 0 -5 -2 0 -4 -1 -3 -1 0 0 0 0 0 0 0 0 0 0 0 0 0 0 0 0 0 0 0 0 0 0 0 0 0 0 -112 0 0 0 0 0 0
-1 -8 0 0 0 0 -1 -1 -6 -3 0 0 0 0 0 0 0 0 0 0 0 0 0 0 0 0 0 0 0 0 0 0 0 0 0 0 0 -375 -307 0 0 0 0 0
-3 -3 -4 0 0 0 0 0 -5 -1 0 0 0 0 0 0 0 0 0 0 0 0 0 0 0 0 0 0 0 0 0 0 0 0 0 0 0 0 -20 -341 0 -1 -5 0
-1 -12 -3 -20 -9 -6 -1 -2 -5 -13 -5 -3 -1 0 0 0 0 0 0 0 0 0 0 0 0 0 0 0 0 0 0 0 0 0 0 0 0 0 0 0 0 0 -3 0
-4 -6 0 0 0 0 0 0 -4 -2 -1 0 -3 0 0 0 0 0 0 0 0 0 0 0 0 0 0 0 0 0 0 0 0 0 0 0 0 0 0 0 0 -59 -52 -32
-17 0 0 0 -2 -11 0 0 -2 -1 0 -2 0 0 0 0 0 0 -55 0 0 0 0 0 0 0 0 0 0 0 0 0 0 0 0 0 0 0 0 0 0 -27 -73 -127
-6 -1 0 0 0 0 -5 -4 0 0 0 -6 0 -1 0 0 0 -61 -26 0 0 0 0 0 0 0 0 0 0 0 0 0 0 0 0 0 0 0 0 0 0 0 -50 -142
-18 -9 0 0 0 -3 -1 0 0 0 0 0 0 0 0 0 -61 -19 0 0 0 0 0 0 0 0 0 0 0 0 0 0 0 0 0 0 0 0 0 0 0 0 0 0
-24 -25 -5 -4 -4 -1 0 0 0 0 0 0 0 0 0 -86 -15 0 0 0 0 0 0 0 0 0 0 0 0 0 0 0 0 0 0 0 0 0 0 0 0 -14 0 0
-14 -14 -8 -7 -6 0 0 0 0 0 0 0 0 0 -108 0 0 0 0 0 0 0 0 0 0 0 0 0 0 0 0 0 0 0 0 0 0 0 0 0 0 0 0 0
-8 -8 -7 -4 -4 0 0 0 0 0 0 0 0 0 0 0 0 0 0 0 0 0 0 0 0 0 0 0 0 0 0 0 0 0 0 0 0 0 0 0 0 0 0 0
-3 -5 -1 -2 -2 0 0 0 0 0 0 0 0 0 0 0 0 0 0 0 0 0 0 0 0 0 0 0 0 0 0 0 0 0 0 0 0 0 0 0 0 0 0 0
0 -6 -1 -6 -6 0 0 0 0 0 0 0 0 0 0 0 0 0 0 0 0 0 0 0 0 0 0 0 0 0 0 0 0 0 0 0 0 0 0 0 0 0 0 0
0 0 0 0 0 0 0 0 0 0 0 0 0 0 0 0 0 0 0 0 0 0 0 0 0 0 0 0 0 0 0 0 0 0 0 0 0 0 0 0 0 0 0 0
0 0 0 0 0 0 0 0 0 0 0 0 0 0 0 0 0 0 0 0 0 0 0 0 0 0 0 0 0 0 0 0 0 0 0 0 0 0 0 0 0 0 0 0
0 0 0 0 0 0 0 0 0 0 0 0 0 0 0 0 0 0 0 0 0 0 0 0 0 0 0 0 0 0 0 0 0 0 0 0 0 0 0 0 0 0 0 0
0 0 0 0 0 0 0 0 0 0 0 0 0 0 0 0 0 0 0 0 0 0 0 0 0 0 0 0 0 0 0 0 0 0 0 0 0 0 0 0 0 0 0 0
Wind_Speed
23 31 36 32 32 31 33 32 33 30 26 29 33 38 36 36 37 39 38 39 33 34 35 35 31 23 21 19 18 16 17 17 18 21 19 19 19 19 19 19 18 16 14 14
27 41 30 28 29 33 36 38 38 33 28 32 38 47 44 41 41 41 39 38 38 39 38 36 33 28 23 21 20 20 19 18 18 18 22 24 23 22 22 21 21 20 18 17
38 32 30 31 32 36 36 38 37 39 35 35 39 51 42 37 34 33 35 36 37 38 38 39 39 36 32 26 24 23 22 21 21 20 20 21 25 24 26 23 23 23 23 22
37 37 30 34 38 33 41 29 33 37 37 44 31 53 45 42 40 34 32 33 33 30 28 28 32 36 35 33 28 25 24 23 22 22 23 23 24 25 24 27 26 24 24 25
38 32 34 35 35 30 36 27 32 34 37 42 42 46 43 29 35 34 28 25 26 28 27 26 26 28 29 27 29 28 27 26 25 24 25 26 28 27 24 24 26 26 25 26
39 26 31 35 27 28 26 29 28 29 31 46 41 40 50 39 35 23 21 23 22 22 22 22 25 29 32 33 32 29 26 27 27 28 28 28 28 28 28 26 27 27 28 27
36 41 30 27 33 25 27 25 35 41 42 49 31 34 47 29 30 25 29 25 23 25 24 23 24 27 28 31 34 33 30 29 25 27 29 30 30 29 31 29 28 30 29 29
39 42 38 28 31 30 28 28 35 45 43 43 33 44 41 29 30 29 27 24 26 21 18 18 19 24 28 31 32 32 33 29 26 26 28 30 31 32 31 31 29 30 32 31
36 41 24 30 27 27 30 38 30 36 32 39 35 40 40 39 31 30 26 29 20 18 17 18 23 25 29 31 31 31 29 29 27 28 29 29 30 32 32 32 32 31 32 33
24 34 32 23 22 31 31 23 31 32 41 47 43 43 41 31 28 24 27 20 16 18 19 24 26 30 32 31 30 31 30 29 30 30 30 31 29 31 31 33 34 34 33 36
28 29 25 20 30 29 31 29 30 28 33 39 43 39 30 30 29 21 18 16 19 23 26 27 30 32 34 35 32 32 32 31 30 31 30 31 30 29 29 32 34 33 35 40
28 24 28 29 24 24 29 33 28 33 34 34 37 44 23 23 19 17 18 18 20 24 28 33 36 36 37 36 37 36 35 32 32 31 30 31 31 31 30 30 29 28 33 32
26 29 32 27 29 26 31 32 34 36 33 36 36 42 18 25 26 18 20 23 25 29 31 33 35 36 39 39 39 38 38 36 34 35 34 33 34 33 32 31 31 30 29 31
20 26 33 38 32 26 33 30 32 34 40 44 42 51 43 37 31 33 33 30 30 30 32 34 36 39 39 40 40 39 39 38 38 38 35 34 33 34 35 32 30 30 29 30
22 32 32 35 31 22 25 29 31 36 40 39 41 43 62 34 34 38 41 36 33 33 35 38 39 39 40 41 42 41 42 40 39 38 36 35 34 32 34 33 32 30 29 28
21 30 29 36 34 37 36 33 33 34 38 42 48 48 45 34 38 41 37 34 34 36 36 36 37 39 40 42 42 42 42 42 39 38 37 35 35 34 33 33 33 31 26 27
23 25 26 35 31 31 41 42 37 38 37 33 39 38 46 40 38 36 33 32 33 33 34 35 37 38 40 41 41 43 43 41 39 37 36 35 34 34 34 34 32 30 29 26
24 24 23 30 22 36 33 25 24 28 32 31 35 35 39 35 28 25 28 31 31 31 33 34 36 38 38 39 40 41 40 38 36 35 35 35 34 33 32 32 34 31 29 28
25 24 24 28 30 33 37 26 23 24 31 24 25 37 37 31 29 30 26 26 27 30 32 34 35 36 37 37 39 39 38 36 35 35 35 35 35 34 33 32 33 31 25 27
29 24 26 24 31 34 29 23 18 19 35 20 22 29 26 25 31 27 26 27 29 30 32 34 35 35 36 37 38 38 37 37 37 38 37 35 35 34 33 30 28 27 28 25
28 28 30 30 30 32 24 20 14 22 27 17 14 17 18 21 20 21 26 29 29 31 33 34 34 35 37 37 38 37 37 37 38 38 37 36 34 34 32 30 26 25 22 19
29 29 30 30 34 41 17 14 19 22 18 17 17 18 19 20 23 25 27 30 32 33 34 35 36 37 37 37 38 38 38 39 39 38 37 36 35 33 31 30 26 23 18 17
31 29 27 25 30 20 15 20 18 17 16 17 18 18 20 23 25 27 29 31 33 33 34 33 36 36 36 36 37 39 39 39 40 39 38 36 35 33 32 30 28 25 23 21
29 24 25 21 22 21 20 20 19 19 18 16 18 20 23 26 27 29 31 33 34 34 35 35 36 37 38 37 37 37 38 39 40 39 39 37 37 36 33 31 29 29 28 28
28 21 23 25 23 22 23 23 19 19 17 17 18 20 23 26 29 30 33 34 35 35 35 36 36 37 38 38 38 38 38 39 40 39 38 38 37 36 35 32 31 31 30 31
24 24 25 31 26 28 27 20 18 20 21 21 22 23 24 27 30 32 33 33 34 35 36 37 37 38 39 39 38 38 38 39 40 40 39 38 37 36 35 33 32 29 29 30
Wind_Direction
256 258 255 258 263 270 274 275 278 284 286 284 283 284 287 288 286 284 285 284 284 284 286 286 287 285 285 283 276 265 260 254 254 260 257 256 255 259 259 260 256 255 249 248
261 256 260 264 266 267 270 273 276 285 286 289 288 283 286 287 285 284 285 285 285 283 282 283 285 285 279 277 275 271 261 251 249 251 258 263 265 264 263 264 261 257 255 250
254 271 256 261 263 263 266 268 273 278 286 291 292 285 287 289 288 287 285 286 286 284 284 280 279 281 284 278 273 270 268 262 251 247 255 264 270 270 268 263 262 256 259 257
258 255 267 258 260 263 266 274 277 276 281 277 292 279 285 291 292 293 291 290 289 290 288 287 284 282 280 282 277 272 266 264 260 251 251 249 253 259 256 265 266 261 253 256
256 257 255 259 259 265 270 276 277 277 278 280 277 279 284 294 295 298 298 297 295 295 293 293 294 293 291 288 284 277 268 265 262 258 252 254 257 258 263 265 266 263 259 253
254 268 257 258 264 264 273 271 277 280 280 273 275 274 278 285 293 301 319 311 310 309 305 303 302 301 297 294 292 286 277 268 264 262 257 255 256 257 262 258 262 265 264 260
253 252 265 267 254 258 259 262 269 270 270 271 284 274 275 293 291 299 307 312 314 311 306 309 309 309 308 302 295 291 285 279 267 261 261 258 259 257 259 262 259 264 264 263
249 254 250 257 256 256 253 257 266 270 271 277 275 273 278 289 291 295 299 302 311 314 317 319 318 316 316 313 310 303 293 287 279 268 265 263 263 265 262 261 261 262 264 264
249 256 268 252 257 251 256 255 261 278 281 277 277 279 285 286 288 292 293 302 301 309 314 316 318 317 317 316 315 315 311 298 289 281 275 270 266 266 266 265 264 263 264 266
266 261 259 255 252 254 259 264 261 262 269 270 275 278 278 293 290 291 291 297 301 312 309 309 313 315 317 317 319 319 318 312 299 291 283 279 273 268 270 270 269 266 265 267
257 266 260 248 252 252 248 257 264 266 267 273 277 279 290 284 287 293 305 308 302 304 305 309 313 315 314 313 316 316 317 317 312 301 292 285 279 276 274 273 273 272 271 270
243 269 260 253 266 261 255 253 255 263 268 269 277 273 289 301 313 310 311 314 312 312 309 306 308 310 312 312 309 310 312 313 313 314 303 292 285 280 278 278 277 273 276 274
235 255 256 264 264 266 261 256 257 263 273 267 268 273 289 303 291 291 305 310 310 310 310 312 311 310 309 310 309 309 307 309 311 311 309 302 290 285 282 282 281 280 278 276
234 254 252 254 268 267 264 264 260 262 262 265 266 271 272 279 289 291 303 307 308 308 310 313 312 309 309 309 309 310 311 310 306 307 308 306 301 292 286 287 285 283 281 284
244 254 254 260 268 277 274 269 264 263 263 266 270 271 265 283 285 286 295 302 305 308 308 310 311 311 308 308 308 306 306 308 308 307 307 304 305 302 295 288 287 287 285 286
244 260 261 262 265 268 273 272 270 269 271 269 272 275 275 286 288 288 295 300 303 305 308 308 311 312 312 310 308 306 306 307 311 310 308 308 304 303 302 296 290 283 286 290
232 255 263 266 266 272 272 267 271 271 269 270 271 273 274 282 282 289 292 298 302 304 307 309 311 314 316 314 313 308 308 308 309 311 314 311 309 306 303 299 296 292 289 285
236 247 262 269 269 265 278 289 280 271 273 270 274 277 275 281 287 294 299 299 301 304 308 311 314 316 319 320 318 313 311 312 312 315 317 318 313 310 307 304 300 299 296 292
244 244 261 265 266 280 281 284 286 283 283 278 270 273 276 281 288 290 298 303 304 307 310 313 316 318 319 321 321 320 319 316 316 315 316 319 320 317 313 309 303 303 303 298
250 243 250 268 269 274 290 295 281 292 284 290 289 285 282 283 278 282 294 303 306 310 313 314 317 321 321 323 322 321 322 321 316 312 313 317 318 320 319 318 312 308 304 303
245 247 247 257 271 280 286 295 299 278 291 305 303 299 295 289 293 297 301 303 309 311 314 318 320 319 319 321 322 321 321 320 318 315 313 314 317 318 318 319 321 317 314 312
245 248 255 260 267 273 283 288 277 291 300 301 301 299 297 298 300 302 305 307 309 311 313 315 314 314 316 318 319 317 316 316 316 316 316 316 316 317 318 318 317 318 319 318
254 252 255 258 270 292 284 288 291 297 298 299 297 299 300 298 300 303 305 308 311 313 315 317 315 315 316 320 321 315 314 315 314 314 315 317 318 316 316 314 311 311 310 308
258 261 263 267 272 276 278 285 291 295 297 301 302 300 299 297 301 302 304 307 310 313 315 317 317 316 315 318 318 318 318 317 315 314 313 315 316 315 315 312 309 305 302 299
259 256 261 269 276 280 279 283 286 292 298 300 303 304 303 302 302 304 304 306 309 311 315 317 317 316 316 318 317 319 319 319 317 317 316 315 314 314 313 315 313 307 304 299
258 263 259 268 272 275 283 283 288 289 292 295 298 301 304 305 304 305 306 309 310 310 313 315 316 315 315 317 318 320 321 319 316 315 315 316 316 315 314 312 311 318 315 308